EDT,Max TemperatureF,Mean TemperatureF,Min TemperatureF,Max Dew PointF,MeanDew PointF,Min DewpointF,Max Humidity, Mean Humidity, Min Humidity, Max Sea Level PressureIn, Mean Sea Level PressureIn, Min Sea Level PressureIn, Max VisibilityMiles, Mean VisibilityMiles, Min VisibilityMiles, Max Wind SpeedMPH, Mean Wind SpeedMPH, Max Gust SpeedMPH,PrecipitationIn, CloudCover, Events, WindDirDegrees
2012-9-1,86,80,74,74,72,70,94,78,61,30.13,30.06,30.00,10,10,7,15,5,20,0.07,8,Rain,141
2012-9-2,84,78,72,72,71,69,87,76,65,30.05,29.97,29.88,10,9,1,15,8,17,0.64,7,Rain-Thunderstorm,104
2012-9-3,82,77,71,72,70,69,93,81,69,29.94,29.91,29.87,10,9,7,17,7,23,0.14,7,Rain,133
2012-9-4,83,78,72,75,72,71,93,86,79,29.92,29.87,29.82,10,6,0,16,4,20,0.69,7,Fog-Rain-Thunderstorm,211
2012-9-5,86,77,67,70,67,63,100,74,48,29.92,29.87,29.80,10,6,0,9,3,16,0.00,6,Fog,54
2012-9-6,91,79,66,70,65,61,100,69,38,29.93,29.89,29.86,10,10,7,15,4,21,T,3,,253
2012-9-7,89,79,69,70,66,62,97,70,43,29.95,29.86,29.65,10,8,3,29,6,33,T,5,Rain-Thunderstorm,171
2012-9-8,79,70,60,67,59,46,100,69,38,29.90,29.73,29.60,10,9,1,39,9,46,0.64,7,Rain-Thunderstorm,293
2012-9-9,73,63,53,54,51,48,93,69,44,30.07,29.96,29.88,10,10,10,15,4,18,T,4,,322
2012-9-10,75,64,52,52,48,44,93,64,35,30.22,30.17,30.09,10,10,9,13,3,15,0.00,1,,18
2012-9-11,79,65,51,51,49,45,89,61,32,30.30,30.24,30.20,10,10,7,12,3,17,0.00,2,,161
2012-9-12,85,70,54,59,53,49,83,59,34,30.30,30.25,30.20,10,10,8,14,3,21,0.00,1,,197
2012-9-13,86,74,61,60,57,53,90,62,34,30.32,30.24,30.19,10,10,9,14,4,21,0.00,3,,159
2012-9-14,80,66,51,62,57,50,93,74,54,30.30,30.23,30.19,10,9,7,26,6,31,T,5,Rain,355
2012-9-15,74,61,48,50,45,39,93,61,29,30.34,30.26,30.18,10,10,10,12,2,15,0.00,5,,7
2012-9-16,77,64,51,48,45,38,83,54,25,30.19,30.12,30.05,10,10,10,10,3,13,0.00,4,,98
2012-9-17,79,67,54,64,54,45,78,59,39,30.07,29.93,29.81,10,10,4,15,5,24,0.04,6,Rain,173
2012-9-18,67,60,52,64,57,38,100,74,48,29.99,29.71,29.60,10,8,2,22,9,30,0.36,7,Rain,277
2012-9-19,68,55,42,42,38,33,89,59,29,30.18,30.11,30.02,10,10,10,13,4,17,0.00,1,,164
2012-9-20,78,62,45,53,44,39,89,60,31,30.08,30.00,29.92,10,10,10,22,7,28,T,3,,200
2012-9-21,70,62,53,55,48,34,86,56,26,30.00,29.90,29.70,10,10,4,28,7,33,0.26,7,Rain-Thunderstorm,190
2012-9-22,71,60,48,58,49,29,100,68,35,30.14,29.86,29.74,10,9,2,38,11,47,0.26,6,Rain,269
2012-9-23,64,52,40,42,38,35,93,65,36,30.24,30.18,30.13,10,10,10,16,5,21,0.00,2,,290
2012-9-24,68,54,39,40,36,30,93,60,26,30.29,30.19,30.06,10,10,10,18,5,29,0.00,1,,198
2012-9-25,67,57,47,57,48,37,90,69,48,30.08,30.03,29.99,10,10,10,20,7,24,T,6,Rain,183
2012-9-26,75,68,60,65,61,57,93,77,60,30.12,30.04,29.97,10,9,0,24,7,33,0.49,8,Rain-Thunderstorm,211
2012-9-27,69,63,56,64,61,52,100,93,86,30.16,30.12,30.08,10,6,2,14,5,15,0.38,8,Rain,97
2012-9-28,67,59,51,52,50,47,96,72,48,30.15,30.11,30.06,10,9,6,12,4,15,0.00,5,,65
2012-9-29,70,59,47,52,47,45,93,68,42,30.09,30.03,29.94,10,10,9,10,2,15,0.00,5,,340
2012-9-30,70,59,47,49,45,39,93,63,33,29.93,29.88,29.84,10,8,2,17,5,21,0.00,2,,3